This is the latest recevied weather packets stored in our database for station/object K2NV. If no packets are shown the sender has not sent any weather packets the latest 10 day(s).
| Time | Temp. | Humidity | Pressure | Rain* | Wind** | Luminosity | Snow |
|---|---|---|---|---|---|---|---|
| 1777963157 | 13.33° C | 88% | 1000.1 hPa | 2.79 mm | - | - | - |
| 1777962857 | 13.33° C | 89% | 1000.2 hPa | 3.05 mm | - | - | - |
| 1777962557 | 13.33° C | 89% | 1000.2 hPa | 3.3 mm | - | - | - |
| 1777962256 | 13.33° C | 89% | 1000.3 hPa | 3.56 mm | - | - | - |
| 1777961956 | 13.33° C | 89% | 1000.6 hPa | 3.3 mm | - | - | - |
| 1777961657 | 13.33° C | 88% | 1001.6 hPa | 2.79 mm | - | - | - |
| 1777961358 | 13.89° C | 88% | 1000.9 hPa | 2.79 mm | - | - | - |
| 1777961057 | 13.89° C | 88% | 1000.5 hPa | 2.79 mm | - | - | - |
| 1777960757 | 13.89° C | 88% | 1001 hPa | 2.79 mm | - | - | - |
| 1777960457 | 13.33° C | 87% | 1001.2 hPa | 2.03 mm | - | - | - |
| 1777960156 | 13.89° C | 86% | 1001.1 hPa | 0.76 mm | - | - | - |
| 1777959858 | 13.89° C | 85% | 1000.9 hPa | 0.76 mm | - | - | - |
| 1777959556 | 13.89° C | 84% | 1000.9 hPa | 0.76 mm | - | - | - |
| 1777959257 | 14.44° C | 83% | 1001.1 hPa | 0.51 mm | - | - | - |
| 1777958957 | 14.44° C | 81% | 1001.1 hPa | 0.25 mm | - | - | - |
| 1777958658 | 14.44° C | 79% | 1001.2 hPa | 0 mm | - | - | - |
| 1777958357 | 14.44° C | 77% | 1001.2 hPa | 0 mm | - | - | - |
| 1777958056 | 15° C | 76% | 1001.2 hPa | 0 mm | - | - | - |
| 1777957757 | 15° C | 75% | 1001.2 hPa | 0 mm | - | - | - |
| 1777957457 | 15° C | 74% | 1001.1 hPa | 0 mm | - | - | - |
| 1777957157 | 15.56° C | 73% | 1001.1 hPa | 0 mm | - | - | - |
| 1777956856 | 15.56° C | 72% | 1001 hPa | 0 mm | - | - | - |
| 1777956557 | 15.56° C | 71% | 1001.1 hPa | 0 mm | - | - | - |
| 1777956258 | 16.11° C | 71% | 1001.1 hPa | 0 mm | - | - | - |
| 1777955957 | 16.11° C | 71% | 1001.1 hPa | 0 mm | - | - | - |
* Rain latest hour (hover to see other rain measurements)
** Current wind speed in m/s (hover to see current wind gust speed)